Regional Weather Roundup
Issued by NWS San Angelo, TX

Home | Current Version | Previous Version | Text Only | Print | Product List | Glossary On
Versions: 1 2 3 4 5 6 7 8 9 10 11 12 13 14 15 16 17 18 19 20 21 22 23 24 25 26 27 28 29 30 31 32 33 34 35 36 37 38 39 40 41 42 43 44 45 46 47 48 49 50
000
ASUS44 KSJT 010402
RWRSJT
WEST CENTRAL TEXAS REGIONAL WEATHER ROUNDUP
NATIONAL WEATHER SERVICE SAN ANGELO TX
1100 PM CDT MON AUG 31 2015

NOTE: "FAIR" INDICATES FEW OR NO CLOUDS BELOW 12,000 FEET WITH NO
SIGNIFICANT WEATHER AND/OR OBSTRUCTIONS TO VISIBILITY.

TXZ049-054-064>066-071>073-076>078-098-099-113-114-127-128-139-140-
154-155-168>170-010500
...LOCATIONS ACROSS WEST CENTRAL TEXAS...

CITY           SKY/WX    TMP DP  RH WIND       PRES   REMARKS
SAN ANGELO     PTCLDY    81  57  43 SE8       29.98R
ABILENE        CLEAR     79  60  52 SE10      30.00R
DYESS AFB      CLEAR     81  61  49 SE8       29.98R
JUNCTION       CLEAR     81  60  48 S12       30.01R
SWEETWATER     NOT AVBL
BROWNWOOD      NOT AVBL
COLEMAN        CLEAR     79  59  50 SE5       30.01R
SONORA         NOT AVBL
OZONA          FAIR      79  55  44 S6        30.04R
BRADY          NOT AVBL
$$

TEXAS PANHANDLE/OKLAHOMA PANHANDLE

CITY           SKY/WX    TMP DP  RH WIND       PRES   REMARKS
AMARILLO       PTCLDY    76  51  41 S14       30.04R
BORGER         PTCLDY    79  50  36 S10       30.00R
CANADIAN       CLEAR     77  55  47 SE14      29.97S
DALHART        LGT RAIN  76  49  38 S10       30.04R
DUMAS          PTCLDY    69  51  51 SE9       30.03R
GUYMON         NOT AVBL
HEREFORD       NOT AVBL
PAMPA          NOT AVBL
PERRYTON       NOT AVBL
$$

SOUTHERN PANHANDLE/SOUTH PLAINS/ROLLING PLAINS

CITY           SKY/WX    TMP DP  RH WIND       PRES   REMARKS
LUBBOCK        PTCLDY    74  55  51 S8        30.03R
SNYDER         NOT AVBL
CHILDRESS      CLEAR     81  56  42 SE10      29.97R
SEMINOLE       CLEAR     73  51  46 S3        30.05R
$$

PERMIAN BASIN

CITY           SKY/WX    TMP DP  RH WIND       PRES   REMARKS
MIDLAND        CLEAR     79  54  41 S8        30.01R
ODESSA         CLEAR     82  52  35 SE9       30.02R
WINK           CLEAR     82  55  39 SE10      29.98R
$$

FAR WEST/SOUTHWEST MOUNTAINS/TRANS PECOS

CITY           SKY/WX    TMP DP  RH WIND       PRES   REMARKS
ALPINE         CLEAR     77  44  30 S7        30.16R
DRYDEN           N/A     86  57  37 SE9       29.98R
EL PASO        PTCLDY    86  43  22 SW7       30.02R
FORT STOCKTON  CLEAR     82  55  39 SE12G22   30.01R
GUADALUPE PASS CLEAR     75  42  30 NE21      30.17R
MARFA          CLEAR     66  39  37 NE3       30.16R
PECOS          NOT AVBL
$$

DALLAS/FORT WORTH METROPLEX

CITY           SKY/WX    TMP DP  RH WIND       PRES   REMARKS
DFW AIRPORT    PTCLDY    84  64  50 SE12      29.98R
FTW MEACHAM    CLEAR     85  65  51 SE10      29.98R
DAL-EXECUTIVE  CLEAR     82  65  56 SE8       29.99R
GRAND PRAIRIE  CLEAR     83  66  56 E7        30.00R
ADDISON        CLEAR     84  67  55 SE7       30.00S
MESQUITE       CLEAR     81  64  57 SE6       29.99R
LANCASTER      CLEAR     82  63  52 SE5       30.00R
$$

NORTH CENTRAL TEXAS

CITY           SKY/WX    TMP DP  RH WIND       PRES   REMARKS
SHRMAN/DENISON CLEAR     81  65  58 SE8       30.01S
GAINESVILLE    NOT AVBL
BRIDGEPORT     CLEAR     79  65  62 SE6       30.00S
DENTON         CLEAR     83  64  52 SE9       29.98R
WAXAHACHIE     CLEAR     81  67  62 SE3       30.01R
GRANBURY       NOT AVBL
$$

WESTERN NORTH TEXAS

CITY           SKY/WX    TMP DP  RH WIND       PRES   REMARKS
WICHITA FALLS  CLEAR     81  62  52 SE14      29.97R
VERNON         CLEAR     85  56  36 SE12      29.97R
BRECKENRIDGE   NOT AVBL
COMANCHE       CLEAR     80  64  56 S12G17    30.00R
$$

CENTRAL AND SOUTH CENTRAL TEXAS

CITY           SKY/WX    TMP DP  RH WIND       PRES   REMARKS
AUSTIN/BERGSTM PTCLDY    77  70  79 S6        30.00R
WACO           CLEAR     82  67  60 S14       29.99R
HILLSBORO      NOT AVBL
TEMPLE         CLEAR     79  64  61 SE10      30.00S
KILLEEN-GRAY   CLEAR     78  66  66 S12       30.00R
FORT HOOD      CLEAR     79  66  65 SE9       29.99R
GEORGETOWN     CLEAR     79  66  65 S6        30.02R
LAGO VISTA     FAIR      79  68  69 S9        30.03R
SAN MARCOS     CLEAR     79  70  73 S8        30.02R
NEW BRAUNFELS  CLEAR     79  71  76 S9        30.00R
RANDOLPH AFB   CLEAR     76  67  75 SE5       30.02R
SAN ANTONIO    PTCLDY    80  67  64 S12       30.02R
STINSON        CLEAR     79  68  69 SE6       29.99R
PLEASANTON     NOT AVBL
LA GRANGE      CLEAR     77  72  84 S3        29.99R
GIDDINGS       NOT AVBL
$$

EAST TEXAS

CITY           SKY/WX    TMP DP  RH WIND       PRES   REMARKS
PARIS          CLEAR     75  61  60 E8        30.01S
CLARKSVILLE    NOT AVBL
TYLER          CLEAR     80  66  62 S8        30.01R
LONGVIEW       CLEAR     75  67  76 S7        30.01R
PALESTINE      CLEAR     79  69  71 SE3       30.02R
NACOGDOCHES    PTCLDY    75  66  73 SE3       30.02R
$$

TEXAS HILL COUNTRY AND EDWARDS PLATEAU

CITY           SKY/WX    TMP DP  RH WIND       PRES   REMARKS
LLANO          NOT AVBL
HORSESHOE BAY  FAIR      80  69  68 S8        30.01R
KERRVILLE      CLEAR     78  67  69 SE10      30.04R
FREDERICKSBRG  NOT AVBL
ROCKSPRINGS    CLEAR     77  64  65 SE13      30.07R
HONDO          CLEAR     80  69  69 SE16      30.02R
UVALDE         NOT AVBL
DEL RIO        CLEAR     84  66  54 SE16G25   29.95R
$$

SOUTHEAST TEXAS

CITY           SKY/WX    TMP DP  RH WIND       PRES   REMARKS
COLLEGE STN    PTCLDY    78  71  79 SE7       30.01R
CALDWELL       NOT AVBL
CROCKETT       CLEAR     77  68  73 SE3       30.04S
BRENHAM        NOT AVBL
HUNTSVILLE     PTCLDY    78  69  73 VRB7      30.01S
CONROE         PTCLDY    73  69  87 E3        30.02R
HOUSTON BUSH   MOCLDY    73  70  90 SE3       30.01R
HOUSTON HOBBY  MOCLDY    76  72  87 S3        30.00R
PERLAND        PTCLDY    75  71  87 E5        30.02R
WHARTON        NOT AVBL
$$

THE UPPER TEXAS COAST

CITY           SKY/WX    TMP DP  RH WIND       PRES   REMARKS
ORANGE         CLOUDY   N/A N/A N/A CALM      30.04R
PORT ARTHUR    MOCLDY    76  74  93 CALM      30.02R
GALVESTON      PTCLDY    81  71  71 SE9       30.02R
ANGLETON       CLEAR     76  73  91 E5        30.00R
BAY CITY       PTCLDY    75  74  97 CALM      30.00R
$$

TEXAS COASTAL BEND, RIO GRANDE PLAINS DEEP SOUTH TEXAS

CITY           SKY/WX    TMP DP  RH WIND       PRES   REMARKS
VICTORIA       MOCLDY    75  74  96 E3        30.00R
BEEVILLE       FAIR      76  75  95 E5        30.00R
ROCKPORT       MOCLDY    82  75  79 SE15      29.98R
PORT ARANSAS   CLOUDY    83  74  75 SE9       29.98R
PORT LAVACA    MOCLDY    77  73  87 SE6       30.00R
CORPUS CHRISTI CLOUDY    80  76  87 SE8       29.98R
KINGSVILLE NAS CLOUDY    80  77  90 SE5       29.98R
COTULLA        PTCLDY    80  71  74 SE10      29.99R
LAREDO         MOCLDY    78  69  73 S8        30.00R
BROWNSVILLE    CLOUDY    76  75  97 SW3       29.99R
PORT ISABEL    CLOUDY    80  80 100 S9        29.97R
HEBBRONVILLE   NOT AVBL
MCALLEN        CLOUDY    79  71  76 NW3       29.95F
WESLACO        NOT AVBL
FALFURRIAS       N/A     77  75  92 E5        29.97R
EDINBURG       CLOUDY    81  73  76 CALM      29.98R
$$


USA.gov is the U.S. government's official web portal to all federal, state and local government web resources and services.